User: anonymous   Login
Location: Holmes Observatory
(37.1039°N, 122.0513°W)
Time: 03:49:37
(UTC-08:00)
Language:

Cosmos 921 Rocket - Orbit

View from above orbital plane
View from above orbital plane
View from above satellite
View from above satellite

Ground track
Ground track

The orbit data is extracted from the following two-line orbital elements,

1 10096U 77055B   16346.11037846  .00000116  00000-0  14550-4 0  9997
2 10096  75.8340 333.6563 0043385 324.8420  34.9909 14.88519540134265
Epoch (UTC): 11 December 2016 02:38:56
Eccentricity: 0.0043385
inclination: 75.8340°
perigee height: 572 km
apogee height: 633 km
right ascension of ascending node: 333.6563°
argument of perigee: 324.8420°
revolutions per day: 14.88519540
mean anomaly at epoch: 34.9909°
orbit number at epoch: 13426

The dashed part of the orbit path shows where the satellite is in the earth's shadow,  

DLR